FW1957 Weather Reports


Display with metric or nautical units.
time (UTC)temp
F
wind
direction
speed
MPH
gust
MPH
rain 1hr
in
rain 24hr
in
rain mn
in
humidity
%
barometer
mb
20260904122207 86 194 3.0 7.0 0.00 0.00 0.00 42 1014.7
20260904121214 86 184 3.0 7.0 0.00 0.00 0.00 43 1014.9
20260904120719 86 213 4.0 7.0 0.00 0.00 0.00 41 1015.0
20260904115713 86 193 3.0 6.0 0.00 0.00 0.00 41 1015.2
20260904114213 87 224 4.0 12.0 0.00 0.00 0.00 42 1015.4
20260904113718 87 217 4.0 11.0 0.00 0.00 0.00 39 1015.5
20260904113209 87 187 4.0 11.0 0.00 0.00 0.00 40 1015.6
20260904112711 87 277 5.0 13.0 0.00 0.00 0.00 41 1015.6
20260904112219 87 250 6.0 20.0 0.00 0.00 0.00 40 1015.7
20260904111710 86 263 9.0 20.0 0.00 0.00 0.00 40 1015.8
20260904111219 86 294 11.0 20.0 0.00 0.00 0.00 40 1015.9
20260904110718 86 339 10.0 18.0 0.00 0.00 0.00 40 1016.1
20260904110218 86 289 8.0 14.0 0.00 0.00 0.00 42 1016.2
20260904105716 85 313 7.0 14.0 0.00 0.00 0.00 42 1016.2
20260904105210 85 294 7.0 15.0 0.00 0.00 0.00 42 1016.3
20260904104713 85 296 8.0 16.0 0.00 0.00 0.00 42 1016.4
20260904104215 85 252 9.0 16.0 0.00 0.00 0.00 43 1016.4
20260904103216 86 306 8.0 19.0 0.00 0.00 0.00 41 1016.5
20260904102719 85 315 9.0 19.0 0.00 0.00 0.00 43 1016.6
20260904102217 85 252 9.0 19.0 0.00 0.00 0.00 43 1016.6
20260904101719 85 254 6.0 11.0 0.00 0.00 0.00 42 1016.8
20260904101218 85 313 5.0 12.0 0.00 0.00 0.00 42 1016.8
20260904100719 84 329 5.0 12.0 0.00 0.00 0.00 42 1016.8
20260904095707 84 297 6.0 16.0 0.00 0.00 0.00 43 1016.8
20260904095216 83 351 8.0 17.0 0.00 0.00 0.00 44 1016.9
20260904094717 83 321 10.0 17.0 0.00 0.00 0.00 43 1016.9
20260904094208 83 343 10.0 17.0 0.00 0.00 0.00 43 1017.0
20260904093737 83 355 11.0 18.0 0.00 0.00 0.00 45 1017.0
20260904092712 83 316 7.0 17.0 0.00 0.00 0.00 45 1017.1
20260904092211 83 337 8.0 19.0 0.00 0.00 0.00 45 1017.2
20260904091713 82 355 10.0 21.0 0.00 0.00 0.00 45 1017.2
20260904091206 82 292 11.0 21.0 0.00 0.00 0.00 45 1017.3
20260904090712 82 313 10.0 21.0 0.00 0.00 0.00 45 1017.3
20260904090207 81 327 10.0 17.0 0.00 0.00 0.00 46 1017.4
20260904085712 81 315 11.0 17.0 0.00 0.00 0.00 46 1017.4
20260904084718 81 294 9.0 20.0 0.00 0.00 0.00 47 1017.7
20260904084218 80 281 11.0 25.0 0.00 0.00 0.00 47 1017.7
20260904083714 80 261 13.0 25.0 0.00 0.00 0.00 47 1017.7
20260904083217 81 271 12.0 25.0 0.00 0.00 0.00 46 1017.7
20260904082717 81 304 10.0 20.0 0.00 0.00 0.00 47 1017.8
20260904082222 80 295 8.0 16.0 0.00 0.00 0.00 48 1017.9
20260904081837 80 342 8.0 16.0 0.00 0.00 0.00 49 1017.9
20260904081213 80 264 9.0 16.0 0.00 0.00 0.00 50 1017.9
20260904080710 79 281 8.0 16.0 0.00 0.00 0.00 50 1017.9
20260904080211 79 226 8.0 16.0 0.00 0.00 0.00 51 1018.1
20260904075707 78 309 7.0 16.0 0.00 0.00 0.00 51 1018.0
20260904075215 78 313 6.0 14.0 0.00 0.00 0.00 53 1018.1
20260904074715 77 281 5.0 11.0 0.00 0.00 0.00 54 1018.2
20260904074218 76 265 4.0 11.0 0.00 0.00 0.00 57 1018.3
20260904073719 76 272 5.0 11.0 0.00 0.00 0.00 56 1018.2
20260904073209 75 320 5.0 11.0 0.00 0.00 0.00 56 1018.2
20260904072705 75 315 5.0 11.0 0.00 0.00 0.00 57 1018.2
20260904072209 75 284 6.0 10.0 0.00 0.00 0.00 57 1018.2
20260904071712 74 267 5.0 11.0 0.00 0.00 0.00 58 1018.2
20260904071211 74 9 6.0 11.0 0.00 0.00 0.00 58 1018.2
20260904065707 73 287 6.0 17.0 0.00 0.00 0.00 59 1018.3
20260904065217 73 325 6.0 12.0 0.00 0.00 0.00 61 1018.3
20260904064708 73 253 8.0 13.0 0.00 0.00 0.00 61 1018.3
20260904064211 73 254 9.0 14.0 0.00 0.00 0.00 61 1018.3
20260904063716 72 242 9.0 14.0 0.00 0.00 0.00 62 1018.3
20260904063208 72 261 9.0 14.0 0.00 0.00 0.00 63 1018.3
20260904062717 71 241 7.0 14.0 0.00 0.00 0.00 64 1018.3
20260904061710 70 246 5.0 9.0 0.00 0.00 0.00 67 1018.2
20260904061215 70 236 5.0 9.0 0.00 0.00 0.00 68 1018.2
20260904060737 69 257 4.0 8.0 0.00 0.00 0.00 69 1018.1
20260904060218 69 272 4.0 8.0 0.00 0.00 0.00 71 1018.1
20260904054706 68 251 3.0 7.0 0.00 0.00 0.00 74 1018.1
20260904054224 68 239 4.0 7.0 0.00 0.00 0.00 74 1018.1
20260904053715 68 252 4.0 7.0 0.00 0.00 0.00 75 1018.1
20260904052712 68 236 4.0 6.0 0.00 0.00 0.00 76 1018.0
20260904052211 68 250 3.0 5.0 0.00 0.00 0.00 76 1018.0
20260904051712 68 254 2.0 5.0 0.00 0.00 0.00 76 1018.0
20260904051207 68 259 2.0 5.0 0.00 0.00 0.00 75 1018.0
20260904050712 67 236 2.0 4.0 0.00 0.00 0.00 75 1018.0
20260904050225 67 260 2.0 4.0 0.00 0.00 0.00 74 1018.1
20260904045719 67 243 2.0 4.0 0.00 0.00 0.00 73 1018.1
20260904044716 68 208 1.0 3.0 0.00 0.00 0.00 73 1018.0
20260904043720 68 208 1.0 3.0 0.00 0.00 0.00 72 1017.9
20260904043219 68 208 1.0 3.0 0.00 0.00 0.00 71 1018.0
20260904042718 68 207 1.0 3.0 0.00 0.00 0.00 71 1017.9
20260904042210 68 209 1.0 3.0 0.00 0.00 0.00 71 1017.9
20260904041710 68 209 1.0 3.0 0.00 0.00 0.00 71 1017.9
20260904041207 68 209 1.0 2.0 0.00 0.00 0.00 70 1018.0
20260904040718 68 188 0.0 2.0 0.00 0.00 0.00 70 1018.0
20260904040206 68 188 1.0 2.0 0.00 0.00 0.00 69 1018.0
20260904035711 68 217 1.0 3.0 0.00 0.00 0.00 69 1018.0
20260904035215 68 217 1.0 3.0 0.00 0.00 0.00 69 1018.0
20260904034712 68 239 1.0 4.0 0.00 0.00 0.00 69 1018.0
20260904034213 68 247 2.0 4.0 0.00 0.00 0.00 69 1018.0
20260904033714 68 267 2.0 6.0 0.00 0.00 0.00 69 1018.0
20260904032211 68 261 3.0 4.0 0.00 0.00 0.00 70 1017.7
20260904031705 68 255 2.0 5.0 0.00 0.00 0.00 70 1017.7
20260904031216 67 254 2.0 6.0 0.00 0.00 0.00 70 1017.8
20260904030718 67 259 3.0 7.0 0.00 0.00 0.00 70 1017.8
20260904030212 67 252 4.0 7.0 0.00 0.00 0.00 71 1017.9
20260904025712 67 257 4.0 7.0 0.00 0.00 0.00 72 1017.9
20260904024710 66 254 3.0 6.0 0.00 0.00 0.00 73 1017.9
20260904024218 66 263 2.0 4.0 0.00 0.00 0.00 74 1017.8
20260904023711 66 267 1.0 3.0 0.00 0.00 0.00 75 1017.8
20260904023219 66 256 0.0 2.0 0.00 0.00 0.00 75 1017.9
20260904022719 66 256 0.0 2.0 0.00 0.00 0.00 75 1017.9
20260904022206 66 256 1.0 2.0 0.00 0.00 0.00 75 1017.9
20260904021713 66 256 1.0 1.0 0.00 0.00 0.00 76 1017.8
20260904020715 66 256 0.0 0.0 0.00 0.00 0.00 75 1017.9
20260904015711 66 256 0.0 2.0 0.00 0.00 0.00 75 1018.0
20260904015212 66 256 0.0 2.0 0.00 0.00 0.00 75 1018.0
20260904014706 66 256 1.0 2.0 0.00 0.00 0.00 76 1018.0
20260904014208 66 256 1.0 2.0 0.00 0.00 0.00 75 1018.0
20260904013708 66 256 1.0 2.0 0.00 0.00 0.00 75 1018.1
20260904013208 66 256 1.0 3.0 0.00 0.00 0.00 75 1018.1
20260904012705 66 256 1.0 3.0 0.00 0.00 0.00 75 1018.2
20260904012209 66 256 2.0 3.0 0.00 0.00 0.00 75 1018.3
20260904011711 66 254 2.0 2.0 0.00 0.00 0.00 75 1018.2
20260904011207 66 307 1.0 2.0 0.00 0.00 0.00 74 1018.2
20260904005716 66 307 0.0 3.0 0.00 0.00 0.00 74 1018.3
20260904005211 66 307 0.0 3.0 0.00 0.00 0.00 73 1018.4
20260904004707 66 307 0.0 6.0 0.00 0.00 0.00 73 1018.4
20260904004217 66 112 1.0 6.0 0.00 0.00 0.00 73 1018.4
20260904003710 66 319 2.0 6.0 0.00 0.00 0.00 73 1018.4
20260904002717 66 116 1.0 5.0 0.00 0.00 0.00 73 1018.4
20260904002213 66 20 2.0 5.0 0.00 0.00 0.00 73 1018.3
20260904001719 66 317 1.0 5.0 0.00 0.00 0.00 73 1018.4
20260904001206 67 154 1.0 5.0 0.00 0.00 0.00 73 1018.4
20260904000711 67 156 1.0 5.0 0.00 0.00 0.00 73 1018.4
20260904000213 67 131 1.0 3.0 0.00 0.00 0.00 73 1018.4
20260903234713 67 290 1.0 3.0 0.00 0.00 0.00 72 1018.5
20260903234218 67 252 1.0 3.0 0.00 0.00 0.00 72 1018.5
20260903233716 67 73 1.0 3.0 0.00 0.00 0.00 71 1018.6
20260903233223 67 73 0.0 3.0 0.00 0.00 0.00 70 1018.5
20260903232710 67 73 0.0 3.0 0.00 0.00 0.00 70 1018.6
20260903231715 67 73 2.0 4.0 0.00 0.00 0.00 70 1018.6
20260903231205 67 106 2.0 4.0 0.00 0.00 0.00 70 1018.7
20260903230238 67 90 1.0 3.0 0.00 0.00 0.00 70 1018.8
20260903225719 67 122 1.0 3.0 0.00 0.00 0.00 70 1018.7
20260903225216 67 119 1.0 4.0 0.00 0.00 0.00 70 1018.9
20260903224209 68 211 1.0 4.0 0.00 0.00 0.00 69 1018.9
20260903223719 68 80 1.0 3.0 0.00 0.00 0.00 68 1018.8
20260903223220 68 61 0.0 0.0 0.00 0.00 0.00 68 1018.8
20260903222714 68 27 0.0 0.0 0.00 0.00 0.00 67 1018.9
20260903222215 68 27 0.0 2.0 0.00 0.00 0.00 67 1018.9
20260903221719 69 27 0.0 3.0 0.00 0.00 0.00 67 1018.8
20260903221220 69 348 1.0 3.0 0.00 0.00 0.00 66 1018.9
20260903220712 69 0 1.0 4.0 0.00 0.00 0.00 66 1018.9
20260903215712 69 0 2.0 5.0 0.00 0.00 0.00 66 1019.0
20260903215207 69 328 3.0 5.0 0.00 0.00 0.00 65 1019.1
20260903214714 69 320 3.0 9.0 0.00 0.00 0.00 65 1019.1
20260903214205 70 329 4.0 9.0 0.00 0.00 0.00 65 1019.1
20260903212714 70 329 5.0 11.0 0.00 0.00 0.00 63 1018.9
20260903212219 71 313 6.0 11.0 0.00 0.00 0.00 62 1018.8
20260903211719 71 331 6.0 12.0 0.00 0.00 0.00 62 1018.9
20260903210717 72 335 6.0 12.0 0.00 0.00 0.00 60 1018.9
20260903210212 72 327 6.0 13.0 0.00 0.00 0.00 59 1018.8
20260903205707 73 336 6.0 13.0 0.00 0.00 0.00 58 1018.8
20260903205215 73 342 7.0 13.0 0.00 0.00 0.00 58 1018.7
20260903204725 73 9 7.0 16.0 0.00 0.00 0.00 57 1018.8
20260903204206 73 355 8.0 16.0 0.00 0.00 0.00 56 1018.6
20260903203215 74 292 9.0 17.0 0.00 0.00 0.00 55 1018.5
20260903202709 74 287 8.0 17.0 0.00 0.00 0.00 55 1018.4
20260903202218 74 283 8.0 17.0 0.00 0.00 0.00 54 1018.3
20260903201707 74 286 7.0 14.0 0.00 0.00 0.00 54 1018.3
20260903201214 74 314 7.0 14.0 0.00 0.00 0.00 53 1018.3
20260903200715 74 303 6.0 12.0 0.00 0.00 0.00 53 1018.3
20260903200241 74 343 5.0 12.0 0.00 0.00 0.00 54 1018.2
20260903195710 74 288 5.0 12.0 0.00 0.00 0.00 53 1018.2
20260903195220 74 327 5.0 12.0 0.00 0.00 0.00 53 1018.1
20260903194716 74 324 5.0 12.0 0.00 0.00 0.00 53 1018.1
20260903193213 74 299 5.0 10.0 0.00 0.00 0.00 52 1018.1
20260903192705 74 330 4.0 9.0 0.00 0.00 0.00 52 1018.0
20260903190719 75 294 4.0 9.0 0.00 0.00 0.00 51 1018.0
20260903185714 75 297 3.0 9.0 0.00 0.00 0.00 51 1017.9
20260903185218 75 300 3.0 7.0 0.00 0.00 0.00 51 1017.9
20260903184718 75 322 3.0 12.0 0.00 0.00 0.00 50 1017.8
20260903184211 75 282 4.0 12.0 0.00 0.00 0.00 50 1017.9
20260903183706 75 302 7.0 12.0 0.00 0.00 0.00 50 1017.9
20260903183229 75 302 8.0 12.0 0.00 0.00 0.00 50 1017.8
20260903182213 76 292 5.0 16.0 0.00 0.00 0.00 50 1017.8
20260903181717 76 336 7.0 16.0 0.00 0.00 0.00 50 1017.7
20260903181212 76 311 6.0 14.0 0.00 0.00 0.00 49 1017.4
20260903180714 76 278 5.0 10.0 0.00 0.00 0.00 49 1017.4
20260903180214 76 313 6.0 11.0 0.00 0.00 0.00 49 1017.4
20260903175717 76 305 5.0 12.0 0.00 0.00 0.00 49 1017.4
20260903175206 76 347 6.0 16.0 0.00 0.00 0.00 49 1017.4
20260903174713 76 306 7.0 16.0 0.00 0.00 0.00 49 1017.4
20260903174208 76 304 8.0 16.0 0.00 0.00 0.00 48 1017.3
20260903173709 77 307 7.0 12.0 0.00 0.00 0.00 48 1017.2
20260903172721 77 342 6.0 12.0 0.00 0.00 0.00 48 1017.1
20260903172207 77 321 6.0 12.0 0.00 0.00 0.00 47 1017.0
20260903171706 78 349 6.0 14.0 0.00 0.00 0.00 47 1017.0
20260903170719 78 321 8.0 15.0 0.00 0.00 0.00 46 1017.1
20260903170219 78 310 8.0 15.0 0.00 0.00 0.00 46 1017.1
20260903165708 78 304 8.0 16.0 0.00 0.00 0.00 45 1017.1
20260903164219 79 309 10.0 16.0 0.00 0.00 0.00 44 1016.9
20260903163713 79 335 8.0 18.0 0.00 0.00 0.00 44 1016.8
20260903163209 79 300 8.0 18.0 0.00 0.00 0.00 45 1016.8
20260903162718 79 285 10.0 18.0 0.00 0.00 0.00 44 1016.9
20260903162208 79 317 9.0 17.0 0.00 0.00 0.00 45 1016.8
20260903161706 79 310 8.0 14.0 0.00 0.00 0.00 46 1016.8
20260903161212 79 320 8.0 12.0 0.00 0.00 0.00 45 1016.9
20260903160720 79 342 7.0 17.0 0.00 0.00 0.00 45 1016.8
20260903160209 79 267 7.0 17.0 0.00 0.00 0.00 45 1016.8
20260903155707 79 288 8.0 15.0 0.00 0.00 0.00 45 1016.7
20260903155213 80 281 8.0 17.0 0.00 0.00 0.00 46 1016.8
20260903154712 80 326 9.0 17.0 0.00 0.00 0.00 45 1016.9
20260903154212 80 339 11.0 18.0 0.00 0.00 0.00 44 1016.9
20260903153712 80 290 10.0 18.0 0.00 0.00 0.00 44 1016.9
20260903153217 80 300 9.0 18.0 0.00 0.00 0.00 44 1016.9
20260903152707 81 327 8.0 15.0 0.00 0.00 0.00 44 1016.9
20260903152210 81 292 9.0 15.0 0.00 0.00 0.00 44 1017.0
20260903151719 81 323 8.0 20.0 0.00 0.00 0.00 44 1017.0
20260903151210 81 281 9.0 20.0 0.00 0.00 0.00 44 1017.0
20260903150718 81 304 10.0 19.0 0.00 0.00 0.00 44 1017.0
20260903150215 81 319 9.0 19.0 0.00 0.00 0.00 44 1016.9
20260903145711 80 284 9.0 19.0 0.00 0.00 0.00 44 1016.9
20260903145220 80 303 11.0 19.0 0.00 0.00 0.00 44 1016.9
20260903144715 80 313 10.0 19.0 0.00 0.00 0.00 44 1017.0
20260903144211 80 298 9.0 19.0 0.00 0.00 0.00 45 1016.9
20260903143705 80 307 9.0 16.0 0.00 0.00 0.00 45 1016.9
20260903143208 80 342 9.0 16.0 0.00 0.00 0.00 44 1016.8
20260903142709 80 309 9.0 18.0 0.00 0.00 0.00 44 1016.8
20260903142215 80 320 10.0 18.0 0.00 0.00 0.00 43 1016.8
20260903141715 80 319 10.0 18.0 0.00 0.00 0.00 43 1016.8
20260903140708 81 302 7.0 14.0 0.00 0.00 0.00 42 1016.9
20260903140216 81 339 7.0 14.0 0.00 0.00 0.00 43 1016.8
20260903135717 81 300 7.0 14.0 0.00 0.00 0.00 42 1017.0
20260903135208 80 350 6.0 15.0 0.00 0.00 0.00 43 1017.0
20260903134210 80 321 7.0 19.0 0.00 0.00 0.00 42 1016.9
20260903133219 80 283 12.0 20.0 0.00 0.00 0.00 41 1017.0
20260903132706 80 294 12.0 20.0 0.00 0.00 0.00 41 1017.1
20260903131707 80 317 10.0 24.0 0.00 0.00 0.00 40 1017.2
20260903131216 80 348 12.0 24.0 0.00 0.00 0.00 39 1017.3
20260903130709 81 332 10.0 17.0 0.00 0.00 0.00 39 1017.1
20260903130217 81 336 9.0 18.0 0.00 0.00 0.00 39 1017.2
20260903125208 81 324 11.0 20.0 0.00 0.00 0.00 42 1017.4
20260903123710 82 317 8.0 21.0 0.00 0.00 0.00 43 1017.7
20260903123217 82 297 9.0 19.0 0.00 0.00 0.00 41 1017.7